FW6296 Weather Reports


time (UTC)temp
F
wind
direction
speed
knots
gust
knots
rain 1hr
in
rain 24hr
in
rain mn
in
humidity
%
barometer
mb
20260906112517 68 115 0.0 2.6 0.00 0.00 0.00 94 1017.7
20260906111517 68 0.0 0.0 0.00 0.00 0.00 93 1017.6
20260906110517 68 0.0 0.0 0.00 0.00 0.00 93 1017.4
20260906105517 69 121 0.0 1.7 0.00 0.00 0.00 92 1017.3
20260906104516 69 125 1.7 3.5 0.00 0.00 0.00 91 1017.2
20260906103516 69 122 0.0 3.5 0.00 0.00 0.00 92 1017.3
20260906102516 69 118 0.0 1.7 0.00 0.00 0.00 92 1017.2
20260906101517 69 122 0.0 1.7 0.00 0.00 0.00 92 1017.1
20260906100517 69 120 0.0 0.9 0.00 0.00 0.00 91 1016.9
20260906095517 70 121 0.9 3.5 0.00 0.00 0.00 90 1016.9
20260906094537 70 125 0.9 3.5 0.00 0.00 0.00 90 1017.0
20260906093516 70 116 0.9 2.6 0.00 0.00 0.00 91 1016.9
20260906092515 70 118 0.9 3.5 0.00 0.00 0.00 91 1016.8
20260906091516 70 116 0.9 3.5 0.00 0.00 0.00 90 1016.7
20260906090517 71 126 1.7 4.3 0.00 0.00 0.00 89 1016.8
20260906085516 71 126 1.7 2.6 0.00 0.00 0.00 88 1016.7
20260906084516 71 122 0.9 3.5 0.00 0.00 0.00 89 1016.6
20260906083517 71 117 0.9 4.3 0.00 0.00 0.00 89 1016.6
20260906082517 72 110 1.7 3.5 0.00 0.00 0.00 87 1016.6
20260906081517 72 116 2.6 6.1 0.00 0.00 0.00 86 1016.7
20260906080518 73 116 2.6 4.3 0.00 0.00 0.00 84 1016.8
20260906075519 73 118 1.7 4.3 0.00 0.00 0.00 84 1017.0
20260906074518 73 121 1.7 5.2 0.00 0.00 0.00 83 1017.0
20260906073518 73 125 2.6 4.3 0.00 0.00 0.00 83 1017.1
20260906072519 73 114 1.7 4.3 0.00 0.00 0.00 84 1016.9
20260906071518 73 111 1.7 5.2 0.00 0.00 0.00 84 1016.9
20260906070535 73 107 1.7 5.2 0.00 0.00 0.00 84 1017.0
20260906065515 73 105 3.5 7.0 0.00 0.00 0.00 84 1017.1
20260906064516 73 112 3.5 6.1 0.00 0.00 0.00 83 1017.0
20260906063516 73 111 3.5 7.0 0.00 0.00 0.00 83 1017.1
20260906062516 73 106 2.6 6.1 0.00 0.00 0.00 84 1017.0
20260906061516 73 103 3.5 8.7 0.00 0.00 0.00 83 1017.0
20260906060516 73 104 2.6 7.0 0.00 0.00 0.00 83 1016.9
20260906055517 73 113 1.7 6.1 0.00 0.00 0.00 83 1016.8
20260906054517 73 106 3.5 7.8 0.00 0.00 0.00 83 1016.8
20260906053517 74 106 3.5 7.0 0.00 0.00 0.00 83 1016.7
20260906052517 74 111 2.6 4.3 0.00 0.00 0.00 82 1016.7
20260906051517 74 111 2.6 6.1 0.00 0.00 0.00 82 1016.8
20260906050537 74 105 4.3 7.8 0.00 0.00 0.00 82 1016.6
20260906045518 74 102 4.3 7.8 0.00 0.00 0.00 82 1016.3
20260906044518 74 111 3.5 7.8 0.00 0.00 0.00 82 1016.2
20260906043518 74 103 4.3 8.7 0.00 0.00 0.00 82 1016.1
20260906042518 74 104 5.2 8.7 0.00 0.00 0.00 83 1016.0
20260906041516 74 98 3.5 7.8 0.00 0.00 0.00 82 1016.0
20260906040515 74 101 3.5 7.8 0.00 0.00 0.00 82 1015.9
20260906035516 74 105 4.3 9.6 0.00 0.00 0.00 82 1015.9
20260906034556 74 106 3.5 7.8 0.00 0.00 0.00 82 1015.9
20260906033516 74 110 3.5 7.0 0.00 0.00 0.00 82 1015.8
20260906032556 74 113 2.6 6.1 0.00 0.00 0.00 82 1015.8
20260906031516 74 114 2.6 6.1 0.00 0.00 0.00 83 1015.9
20260906030516 74 109 2.6 5.2 0.00 0.00 0.00 83 1015.7
20260906025517 74 114 4.3 8.7 0.00 0.00 0.00 82 1015.8
20260906024537 74 111 2.6 6.1 0.00 0.00 0.00 82 1015.8
20260906023517 74 114 1.7 7.8 0.00 0.00 0.00 82 1015.8
20260906022517 74 109 3.5 8.7 0.00 0.00 0.00 81 1015.8
20260906021517 73 97 1.7 8.7 0.00 0.00 0.00 81 1015.9
20260906020518 73 113 2.6 6.1 0.00 0.00 0.00 81 1015.9
20260906015518 73 111 2.6 7.8 0.00 0.00 0.00 81 1015.9
20260906014518 73 98 1.7 7.0 0.00 0.00 0.00 81 1016.0
20260906013558 73 99 2.6 5.2 0.00 0.00 0.00 80 1015.9
20260906012518 74 90 1.7 6.1 0.00 0.00 0.00 79 1015.9
20260906011519 74 110 1.7 8.7 0.00 0.00 0.00 79 1015.9
20260906010516 74 105 3.5 7.8 0.00 0.00 0.00 78 1015.8
20260906005516 74 107 2.6 8.7 0.00 0.00 0.00 78 1015.6
20260906004516 75 99 2.6 7.8 0.00 0.00 0.00 78 1015.4
20260906003516 75 107 2.6 7.0 0.00 0.00 0.00 78 1015.1
20260906002536 76 106 3.5 8.7 0.00 0.00 0.00 78 1014.9
20260906001516 76 113 3.5 7.8 0.00 0.00 0.00 77 1014.9
20260906000537 77 78 2.6 7.0 0.00 0.00 0.00 75 1015.1
20260905235517 77 104 4.3 8.7 0.00 0.00 0.00 75 1015.0
20260905234517 78 90 2.6 7.0 0.00 0.00 0.00 74 1015.0
20260905233517 79 103 2.6 8.7 0.00 0.00 0.00 72 1015.0
20260905232517 80 109 3.5 7.8 0.00 0.00 0.00 70 1014.8
20260905231518 80 89 2.6 9.6 0.00 0.00 0.00 70 1014.6
20260905230518 81 97 3.5 7.8 0.00 0.00 0.00 68 1014.5
20260905225518 82 86 2.6 7.0 0.00 0.00 0.00 66 1014.4
20260905224518 82 97 3.5 7.8 0.00 0.00 0.00 67 1014.3
20260905223515 82 94 2.6 6.1 0.00 0.00 0.00 68 1014.3
20260905222515 81 71 2.6 6.1 0.00 0.00 0.00 67 1014.3
20260905221517 81 91 3.5 7.8 0.00 0.00 0.00 69 1014.6
20260905220536 82 93 3.5 7.8 0.00 0.00 0.00 68 1014.6
20260905215516 82 58 2.6 7.8 0.00 0.00 0.00 68 1014.6
20260905214516 82 81 2.6 6.1 0.00 0.00 0.00 68 1014.4
20260905213516 82 74 2.6 7.0 0.00 0.00 0.00 69 1014.3
20260905212517 84 53 3.5 8.7 0.00 0.00 0.00 66 1014.2
20260905211517 84 72 2.6 7.8 0.00 0.00 0.00 66 1014.3
20260905210517 84 93 4.3 7.8 0.00 0.00 0.00 67 1014.2
20260905205517 85 98 3.5 9.6 0.00 0.00 0.00 66 1014.2
20260905204517 84 9 2.6 6.1 0.00 0.00 0.00 65 1014.3
20260905203517 84 44 2.6 6.1 0.00 0.00 0.00 66 1014.4
20260905202518 85 85 2.6 7.8 0.00 0.00 0.00 66 1014.4
20260905201519 86 95 3.5 8.7 0.00 0.00 0.00 64 1014.3
20260905200538 86 81 2.6 11.3 0.00 0.00 0.00 64 1014.3
20260905195518 86 88 3.5 6.1 0.00 0.00 0.00 65 1014.2
20260905194518 86 95 3.5 9.6 0.00 0.00 0.00 66 1014.2
20260905193536 85 56 2.6 7.0 0.00 0.00 0.00 66 1014.3
20260905192515 86 89 3.5 8.7 0.00 0.00 0.00 65 1014.3
20260905191516 86 88 3.5 7.0 0.00 0.00 0.00 66 1014.4
20260905190516 86 60 2.6 7.0 0.00 0.00 0.00 65 1014.4
20260905185516 85 95 1.7 7.8 0.00 0.00 0.00 67 1014.5
20260905184516 85 89 3.5 9.6 0.00 0.00 0.00 67 1014.4
20260905183516 85 99 4.3 10.4 0.00 0.00 0.00 68 1014.4
20260905182537 87 90 3.5 8.7 0.00 0.00 0.00 65 1014.3
20260905181517 86 99 2.6 7.8 0.00 0.00 0.00 65 1014.4
20260905180517 87 93 3.5 7.8 0.00 0.00 0.00 64 1014.3
20260905175517 88 98 3.5 7.0 0.00 0.00 0.00 62 1014.3
20260905174517 87 44 2.6 7.0 0.00 0.00 0.00 62 1014.3
20260905173518 87 81 2.6 7.0 0.00 0.00 0.00 64 1014.3
20260905172518 87 47 2.6 6.1 0.00 0.00 0.00 63 1014.4
20260905171518 87 59 2.6 6.1 0.00 0.00 0.00 64 1014.5
20260905170518 87 91 2.6 7.8 0.00 0.00 0.00 65 1014.6
20260905165518 86 76 2.6 7.8 0.00 0.00 0.00 65 1014.6
20260905164515 87 90 2.6 7.8 0.00 0.00 0.00 65 1014.6
20260905163515 86 88 3.5 7.0 0.00 0.00 0.00 67 1014.6
20260905162516 86 95 3.5 7.0 0.00 0.00 0.00 67 1014.7
20260905161535 86 79 3.5 7.0 0.00 0.00 0.00 68 1014.7
20260905160516 86 80 1.7 6.1 0.00 0.00 0.00 69 1014.6
20260905155516 84 91 4.3 9.6 0.00 0.00 0.00 72 1014.6
20260905154516 84 91 5.2 9.6 0.00 0.00 0.00 73 1014.5
20260905153516 84 77 2.6 7.8 0.00 0.00 0.00 73 1014.4
20260905152516 83 57 2.6 6.1 0.00 0.00 0.00 74 1014.4
20260905151517 83 61 2.6 7.8 0.00 0.00 0.00 75 1014.3
20260905150538 83 97 3.5 7.8 0.00 0.00 0.00 75 1014.1
20260905145517 84 22 1.7 7.0 0.00 0.00 0.00 74 1014.2
20260905144517 83 44 1.7 5.2 0.00 0.00 0.00 76 1014.2
20260905143518 83 71 2.6 7.8 0.00 0.00 0.00 76 1014.1
20260905142518 82 103 1.7 7.0 0.00 0.00 0.00 78 1013.9
20260905141518 82 91 1.7 4.3 0.00 0.00 0.00 78 1013.8
20260905140518 81 93 2.6 6.1 0.00 0.00 0.00 79 1013.7
20260905135518 81 89 1.7 4.3 0.00 0.00 0.00 80 1013.8
20260905134516 81 98 2.6 7.0 0.00 0.00 0.00 81 1014.1
20260905133516 82 89 2.6 7.8 0.00 0.00 0.00 79 1014.2
20260905132516 81 94 4.3 7.0 0.00 0.00 0.00 81 1014.0
20260905131516 81 96 2.6 4.3 0.00 0.00 0.00 83 1013.8
20260905130516 81 93 2.6 6.1 0.00 0.00 0.00 84 1013.6
20260905125516 80 34 0.9 2.6 0.00 0.00 0.00 85 1013.6
20260905124517 79 335 0.0 2.6 0.00 0.00 0.00 87 1013.4
20260905123516 78 59 0.0 2.6 0.00 0.00 0.00 89 1013.2
20260905122557 78 59 0.0 1.7 0.00 0.00 0.00 89 1013.1
20260905121517 77 0.0 0.0 0.00 0.00 0.00 90 1013.0
20260905120517 77 0.0 0.0 0.00 0.00 0.00 91 1012.9
20260905115517 77 0.0 0.0 0.00 0.00 0.00 92 1012.9
20260905114537 77 0.0 0.0 0.00 0.00 0.00 90 1012.8
20260905113517 77 0.0 0.0 0.00 0.00 0.00 90 1012.7